Regional Weather Roundup
Issued by NWS Upton, NY

Current Version | Previous Version | Text Only | Print | Product List | Glossary On
Versions: 1 2 3 4 5 6 7 8 9 10 11 12 13 14 15 16 17 18 19 20 21 22 23 24 25 26 27 28 29 30 31 32 33 34 35 36 37 38 39 40 41 42 43 44 45 46 47 48 49 50
000
ASUS41 KOKX 211708
RWROKX

REGIONAL WEATHER ROUNDUP
NATIONAL WEATHER SERVICE NEW YORK NY
1200 PM EST TUE FEB 21 2017

NOTE: "FAIR" INDICATES FEW OR NO CLOUDS BELOW 12,000 FEET WITH NO
SIGNIFICANT WEATHER AND/OR OBSTRUCTIONS TO VISIBILITY.

NYZ071-072-176-178-NJZ106-104-211800-
NEW YORK CITY METRO AREA

CITY           SKY/WX    TMP DP  RH WIND       PRES   REMARKS
Central Park   MOSUNNY   45  25  45 VRB6      30.36F
Wall St Helipt NOT AVBL
LaGuardia APRT CLOUDY    46  26  45 SW12      30.34F
Kennedy INTL   PTSUNNY   44  28  53 S8        30.36F
Breezy Point     N/A     39 N/A N/A SE7         N/A  WCI  34
Newark/Liberty CLOUDY    44  29  55 S6        30.35F
Teterboro      MOSUNNY   46  26  45 S12       30.34F
$$

NYZ177-179-078>081-211800-
LONG ISLAND NEW YORK

CITY           SKY/WX    TMP DP  RH WIND       PRES   REMARKS
Jones Beach      N/A     39 N/A N/A SE8         N/A  WCI  34
Matinecock PT    N/A     36 N/A N/A E9          N/A  WCI  29
Farmingdale    MOSUNNY   43  26  51 S7        30.34F
MacArthur/ISP  PTSUNNY   44  27  51 SE8       30.34F
Shirley        MOSUNNY   43  21  41 S5        30.35F
Westhampton    MOSUNNY   43  21  41 S7        30.36F
Southampton    NOT AVBL
Bridgehampton  NOT AVBL
East Hampton     N/A     42  26  54 S7        30.34F
Montauk          N/A     42  29  59 VRB3      30.36F
$$

NYZ052-065-067-211800-
HUDSON VALLEY

CITY           SKY/WX    TMP DP  RH WIND       PRES   REMARKS
White Plains   MOSUNNY   42  23  46 SW6       30.31F
Newburgh       PTSUNNY   41  21  45 CALM      30.32F
Montgomery     CLOUDY    42  22  44 S5        30.29F
Poughkeepsie   MOSUNNY   42  20  41 SW6       30.31F
Albany         CLOUDY    38  16  40 S14G21    30.27F WCI  30
$$

NJZ001-105-106-008-010-013-015-019>022-104-211800-
NEW JERSEY

CITY           SKY/WX    TMP DP  RH WIND       PRES   REMARKS
Newark/Liberty CLOUDY    44  29  55 S6        30.35F
Teterboro      MOSUNNY   46  26  45 S12       30.34F
Caldwell       PTSUNNY   45  24  43 S7        30.33F
Somerville     MOSUNNY   47  27  45 S9        30.32F
Linden         NOT AVBL
Sussex         CLOUDY    43  25  49 S7        30.29F
Andover          N/A     43  26  51 S8        30.29F
Trenton        CLOUDY    47  29  49 S6        30.33F
Millville      MOSUNNY   50  32  50 CALM      30.32F
Atlantic City  MOSUNNY   48  28  46 VRB5      30.35S
Wrightstown    MOSUNNY   49  27  42 CALM      30.31F
Toms River     MOSUNNY   47  30  51 S9        30.35F
Belmar         CLOUDY    44  30  57 SE9G16    30.35F
$$

PAZ047>061-062-071-211800-
EASTERN PENNSYLVANIA

CITY           SKY/WX    TMP DP  RH WIND       PRES   REMARKS
Philadelphia   CLOUDY    48  28  46 SW9       30.33F
Allentown      MOSUNNY   45  26  47 SW6       30.30F
Scranton       CLOUDY    44  17  33 S8        30.23F
$$

CTZ002-004>006-009-010-012-RIZ004-006-007-MAZ004-011-015-211800-
SOUTHERN NEW ENGLAND
 IN CT

CITY           SKY/WX    TMP DP  RH WIND       PRES   REMARKS
Bradley INTL   CLOUDY    39  16  39 SE7       30.32F WCI  34
Hartford       MOSUNNY   40  18  41 S6        30.34F
Danbury        CLOUDY    41  15  35 VRB5      30.32F
Wtrbury/Oxford PTSUNNY   41  16  36 S7        30.32F
Bridgeport     CLOUDY    40  23  50 E5        30.35F
Meriden        MOSUNNY   43  16  33 S7        30.33F
New Haven      CLOUDY    39  20  46 S6        30.35F WCI  35
Chester          N/A     43  16  33 VRB5      30.33F
Groton         CLOUDY    41  28  60 S7        30.35F
Wilimantic     CLOUDY    43  16  33 S7        30.34F

 IN RI

CITY           SKY/WX    TMP DP  RH WIND       PRES   REMARKS
Providence     PTSUNNY   42  18  37 S6        30.33F
Block Island   MOSUNNY   40  28  62 NE5       30.35F
Westerly       MOSUNNY   41  23  48 S7        30.35F
 IN MA

CITY           SKY/WX    TMP DP  RH WIND       PRES   REMARKS
Boston         MOSUNNY   39  27  62 SE5       30.35F
Worcester      MOSUNNY   39  11  31 VRB3      30.28F
Westfield      PTSUNNY   38  17  42 S9        30.31F WCI  31
Provincetown   SUNNY     40  26  57 NE7       30.34F
Nantucket      SUNNY     43  27  53 NE7       30.32F
$$

ANZ330-335-338-340-345-350-353-355-211800-
COASTAL MARINE OBSERVATIONS


STATION/POSITION TIME  SKY/WX   TEMP    WIND        PRES    VSBY  WAVE
                                AIR SEA DIR/SP/G                  HT/PER
                 (UTC)          (F)     (DEG/KT/KT) (MB)    (MI)  (FT/S)
NY HARB ENTRANCE 1550            39 42   90/ 10/ 10 1028.1          2/ 5
20 S FIRE ISLAND 1650            41 43  110/  6/  6 1027.8          3/ 5
GREAT SOUTH BAY  NOT AVBL
23 SSW MONTAUK P 1650            40 45              1028.5          2/ 5
15 E BARNEGAT LI 1630               44                N/A           3/ 6
HUDSON CANYON    1650               49              1027.7          3/ 6
KINGS POINT      1642            38 38              1027.3
EXECUTION ROCKS  NOT AVBL
CENTRAL LI SOUND 1615            36     100/  2/  2   N/A           0
EASTERN LI SOUND NOT AVBL
ROBBINS REEF     1642            39     180/ 11/ 12 1027.9
$$


>>>>>>>>>>>>>>>>>>>>>>>>>>>> KEY <<<<<<<<<<<<<<<<<<<<<<<<<<<
>                                                          <
>     SKY/WX - Sky Condition/Present Weather               <
>     TMP    - Temperature in Fahrenheit                   <
>     DP     - Dew Point in Fahrenheit                     <
>     RH     - Relative Humidity in Percent                <
>     WIND   - Direction (from) and Speed in MPH           <
>     PRES   - Mean Sea Level Pressure (inches of Hg)      <
>     WCI    - Wind Chill Index                            <
>     VSB    - VISIBILITY IN MILES                         <
>     HX     - HEAT INDEX                                  <
>     TC     - TEMPERATURE IN CELSIUS                      <
>     VRB    - VARIABLE WIND DIRECTION                     <
>                                                          <
>>>>>>>>>>>>>>>>>>>>>>>>>>>> KEY <<<<<<<<<<<<<<<<<<<<<<<<<<<



USA.gov is the U.S. government's official web portal to all federal, state and local government web resources and services.